Ignacio, CO

4:21 PM MST on February 25, 2017 (GMT -0700)
Durango-La Plata County

Weather History for KDRO - June, 2014

Change the Weather History Date:

Monday, June 2, 2014

  Actual Average Record
Temperature  
Mean Temperature 60 °F 58 °F  
Max Temperature 85 °F 77 °F 88 °F (1972)
Min Temperature 35 °F 39 °F 27 °F (1971)
Degree Days  
Heating Degree Days 5 7  
Month to date heating degree days 8 14  
Since 1 June heating degree days 8 14  
Since 1 July heating degree days 6761 7022  
Cooling Degree Days 0 0  
Month to date cooling degree days 0 0  
Year to date cooling degree days 5 1  
Since 1 June cooling degree days 0 0  
Growing Degree Days 10 (Base 50)    
Moisture  
Dew Point 15 °F    
Average Humidity 28    
Maximum Humidity 52    
Minimum Humidity 4    
Precipitation  
Precipitation 0.00 in 0.01 in 0.14 in (1986)
Month to date precipitation 0.00 0.03  
Year to date precipitation 2.40 5.46  
Sea Level Pressure  
Sea Level Pressure 29.92 in    
Wind  
Wind Speed 6 mph (NNE)    
Max Wind Speed 18 mph    
Max Gust Speed 26 mph    
Visibility 10 miles    
Events      
T = Trace of Precipitation, MM = Missing Value Source: NWS Daily Summary

Daily Weather History Graph

Daily Weather History Graph

Search for Another Location

Airport or City:

Trip Planner

Search our weather history database for the weather conditions in past years. The results will help you decide how hot, cold, wet, or windy it might be!

Date:

Astronomy

Jun. 02, 2014 Rise Set
Actual Time 5:52 AM MDT 8:26 PM MDT
Civil Twilight 5:21 AM MDT 8:56 PM MDT
Nautical Twilight 4:44 AM MDT 9:34 PM MDT
Astronomical Twilight 4:02 AM MDT 10:16 PM MDT
Moon 10:18 AM MDT (6/2) No Moon Set
Length of Visible Light 15h 34m
Length of Day
14h 34m
Waxing Crescent, 22% of the Moon is Illuminated
Jun 2
Waxing Crescent
Jun 5
First Quarter
Jun 12
Full
Jun 19
Last Quarter
Jun 27
New

Hourly Weather History & Observations

Time (MDT) Temp. Windchill Dew Point Humidity Pressure Visibility Wind Dir Wind Speed Gust Speed Precip Events Conditions
12:53 AM 48.9 °F - 21.0 °F 33% 29.88 in 10.0 mi NNW 3.5 mph - N/A   Clear
1:53 AM 48.0 °F - 21.0 °F 34% 29.88 in 10.0 mi Calm Calm - N/A   Clear
2:53 AM 41.0 °F 39.0 °F 18.0 °F 40% 29.91 in 10.0 mi SSE 3.5 mph - N/A   Clear
3:53 AM 42.1 °F - 19.9 °F 41% 29.91 in 10.0 mi Calm Calm - N/A   Clear
4:53 AM 36.0 °F - 19.9 °F 52% 29.96 in 10.0 mi Calm Calm - N/A   Clear
5:53 AM 42.1 °F 39.2 °F 18.0 °F 38% 29.95 in 10.0 mi North 4.6 mph - N/A   Clear
6:53 AM 45.0 °F - 19.9 °F 37% 29.97 in 10.0 mi Calm Calm - N/A   Clear
7:53 AM 53.1 °F - 21.9 °F 30% 29.96 in 10.0 mi ENE 4.6 mph - N/A   Clear
8:53 AM 61.0 °F - 25.0 °F 25% 29.98 in 10.0 mi East 4.6 mph - N/A   Clear
9:53 AM 66.9 °F - 19.9 °F 17% 29.98 in 10.0 mi East 12.7 mph - N/A   Clear
12:53 PM 81.0 °F - 6.1 °F 6% 29.95 in 10.0 mi SSW 12.7 mph - N/A   Clear
1:53 PM 81.0 °F - 3.0 °F 5% 29.93 in 10.0 mi South 9.2 mph 18.4 mph N/A   Clear
2:53 PM 82.9 °F - -2.0 °F 4% 29.94 in 10.0 mi West 13.8 mph 24.2 mph N/A   Clear
3:53 PM 84.9 °F - -0.0 °F 4% 29.91 in 10.0 mi SW 15.0 mph 21.9 mph N/A   Clear
4:53 PM 84.0 °F - 1.9 °F 4% 29.94 in 10.0 mi West 13.8 mph - N/A   Clear
5:53 PM 82.0 °F - -0.0 °F 4% 29.91 in 10.0 mi West 10.4 mph - N/A   Clear
6:53 PM 82.0 °F - 5.0 °F 5% 29.88 in 10.0 mi Variable 5.8 mph - N/A   Clear
7:53 PM 79.0 °F - 10.0 °F 7% 29.87 in 10.0 mi Calm Calm - N/A   Clear
8:53 PM 68.0 °F - 21.0 °F 17% 29.87 in 10.0 mi East 4.6 mph - N/A   Clear
9:53 PM 61.0 °F - 23.0 °F 23% 29.88 in 10.0 mi North 9.2 mph - N/A   Clear
10:53 PM 57.9 °F - 25.0 °F 28% 29.87 in 10.0 mi North 4.6 mph - N/A   Clear
11:53 PM 55.0 °F - 24.1 °F 30% 29.87 in 10.0 mi East 4.6 mph - N/A   Clear